Calera, OK

4:02 PM CST on February 19, 2017 (GMT -0600)
Eaker

Weather History for KDUA - November, 2012

Change the Weather History Date:

Monday, November 26, 2012

  Actual Average (KMLC) Record (KMLC)
Temperature  
Mean Temperature 58 °F -  
Max Temperature 73 °F 60 °F 83 °F (1965)
Min Temperature 44 °F 39 °F 19 °F (2010)
Degree Days  
Heating Degree Days 6    
Growing Degree Days 8 (Base 50)    
Moisture  
Dew Point 48 °F    
Average Humidity 71    
Maximum Humidity 100    
Minimum Humidity 46    
Precipitation  
Precipitation 0.00 in - - ()
Sea Level Pressure  
Sea Level Pressure 30.00 in    
Wind  
Wind Speed 12 mph (West)    
Max Wind Speed 28 mph    
Max Gust Speed 33 mph    
Visibility 10 miles    
Events      
Averages and records for this station are not official NWS values.
T = Trace of Precipitation, MM = Missing Value Source: NWS Daily Summary

Daily Weather History Graph

Daily Weather History Graph

Search for Another Location

Airport or City:

Trip Planner

Search our weather history database for the weather conditions in past years. The results will help you decide how hot, cold, wet, or windy it might be!

Date:

Astronomy

Nov. 26, 2012 Rise Set
Actual Time 7:08 AM CST 5:17 PM CST
Civil Twilight 6:41 AM CST 5:44 PM CST
Nautical Twilight 6:10 AM CST 6:15 PM CST
Astronomical Twilight 5:40 AM CST 6:45 PM CST
Moon 4:08 PM CST (11/26) 5:22 AM CST (11/26)
Length of Visible Light 11h 02m
Length of Day
10h 08m
Waxing Gibbous, 97% of the Moon is Illuminated
Nov 26
Waxing Gibbous
Nov 28
Full
Dec 6
Last Quarter
Dec 13
New
Dec 19
First Quarter

Hourly Weather History & Observations

Time (CST) Temp. Windchill Dew Point Humidity Pressure Visibility Wind Dir Wind Speed Gust Speed Precip Events Conditions
12:15 AM 59.0 °F - 50.0 °F 72% 29.86 in 10.0 mi South 11.5 mph - N/A   Clear
12:35 AM 59.0 °F - 51.8 °F 77% 29.86 in 10.0 mi South 13.8 mph - N/A   Clear
12:55 AM 60.8 °F - 51.8 °F 72% 29.86 in 10.0 mi South 12.7 mph - N/A   Clear
1:15 AM 60.8 °F - 51.8 °F 72% 29.86 in 10.0 mi South 12.7 mph - N/A   Clear
1:35 AM 60.8 °F - 51.8 °F 72% 29.86 in 10.0 mi South 12.7 mph - N/A   Clear
1:55 AM 60.8 °F - 51.8 °F 72% 29.86 in 10.0 mi South 11.5 mph - N/A   Clear
2:15 AM 60.8 °F - 53.6 °F 77% 29.86 in 10.0 mi South 9.2 mph 17.3 mph N/A   Clear
2:35 AM 60.8 °F - 53.6 °F 77% 29.87 in 10.0 mi SSW 8.1 mph - N/A   Clear
2:55 AM 60.8 °F - 53.6 °F 77% 29.87 in 10.0 mi South 11.5 mph 17.3 mph N/A   Clear
3:15 AM 60.8 °F - 53.6 °F 77% 29.87 in 10.0 mi South 10.4 mph - N/A   Clear
3:35 AM 59.0 °F - 53.6 °F 82% 29.87 in 10.0 mi South 10.4 mph - N/A   Clear
3:55 AM 59.0 °F - 53.6 °F 82% 29.86 in 10.0 mi South 11.5 mph 17.3 mph N/A   Clear
4:15 AM 59.0 °F - 53.6 °F 82% 29.86 in 10.0 mi South 12.7 mph - N/A   Clear
4:35 AM 59.0 °F - 53.6 °F 82% 29.87 in 10.0 mi South 9.2 mph - N/A   Clear
4:55 AM 59.0 °F - 53.6 °F 82% 29.87 in 10.0 mi South 6.9 mph - N/A   Clear
5:15 AM 55.4 °F - 53.6 °F 94% 29.87 in 10.0 mi South 8.1 mph - N/A   Clear
5:35 AM 55.4 °F - 53.6 °F 94% 29.87 in 10.0 mi SSE 5.8 mph - N/A   Clear
5:55 AM 55.4 °F - 53.6 °F 94% 29.87 in 10.0 mi SSE 5.8 mph - N/A   Scattered Clouds
6:15 AM 53.6 °F - 53.6 °F 100% 29.88 in 10.0 mi SSE 6.9 mph - N/A   Scattered Clouds
6:35 AM 55.4 °F - 53.6 °F 94% 29.89 in 7.0 mi South 3.5 mph - N/A   Mostly Cloudy
6:55 AM 55.4 °F - 53.6 °F 94% 29.89 in 7.0 mi South 5.8 mph - N/A   Overcast
7:15 AM 57.2 °F - 55.4 °F 94% 29.90 in 7.0 mi Calm Calm - N/A   Overcast
7:35 AM 59.0 °F - 57.2 °F 94% 29.90 in 7.0 mi South 8.1 mph - N/A   Overcast
7:55 AM 59.0 °F - 57.2 °F 94% 29.91 in 7.0 mi South 6.9 mph - N/A   Scattered Clouds
8:15 AM 59.0 °F - 59.0 °F 100% 29.91 in 7.0 mi South 6.9 mph - N/A   Scattered Clouds
8:35 AM 60.8 °F - 59.0 °F 94% 29.92 in 7.0 mi South 4.6 mph - N/A   Clear
8:55 AM 60.8 °F - 59.0 °F 94% 29.93 in 10.0 mi South 6.9 mph - N/A   Scattered Clouds
9:15 AM 62.6 °F - 59.0 °F 88% 29.93 in 10.0 mi South 8.1 mph - N/A   Mostly Cloudy
9:35 AM 62.6 °F - 59.0 °F 88% 29.94 in 10.0 mi SSW 9.2 mph - N/A   Scattered Clouds
9:55 AM 64.4 °F - 59.0 °F 83% 29.95 in 10.0 mi SW 11.5 mph - N/A   Scattered Clouds
10:15 AM 66.2 °F - 57.2 °F 73% 29.95 in 10.0 mi SW 11.5 mph - N/A   Mostly Cloudy
10:35 AM 68.0 °F - 55.4 °F 64% 29.95 in 10.0 mi SW 8.1 mph - N/A   Mostly Cloudy
10:55 AM 68.0 °F - 55.4 °F 64% 29.95 in 10.0 mi SW 8.1 mph - N/A   Mostly Cloudy
11:15 AM 68.0 °F - 53.6 °F 60% 29.95 in 10.0 mi West 6.9 mph - N/A   Mostly Cloudy
11:35 AM 69.8 °F - 53.6 °F 56% 29.95 in 10.0 mi WNW 4.6 mph - N/A   Mostly Cloudy
11:55 AM 68.0 °F - 53.6 °F 60% 29.95 in 10.0 mi WNW 4.6 mph - N/A   Scattered Clouds
12:15 PM 69.8 °F - 53.6 °F 56% 29.95 in 10.0 mi West 8.1 mph - N/A   Clear
12:35 PM 71.6 °F - 53.6 °F 53% 29.94 in 10.0 mi WSW 6.9 mph - N/A   Clear
12:55 PM 71.6 °F - 51.8 °F 50% 29.94 in 10.0 mi West 8.1 mph - N/A   Clear
1:15 PM 73.4 °F - 51.8 °F 47% 29.94 in 10.0 mi WNW 6.9 mph - N/A   Scattered Clouds
1:35 PM 69.8 °F - 51.8 °F 53% 29.94 in 10.0 mi NW 8.1 mph - N/A   Scattered Clouds
1:55 PM 71.6 °F - 50.0 °F 46% 29.94 in 10.0 mi NW 6.9 mph - N/A   Clear
2:15 PM 69.8 °F - 53.6 °F 56% 29.95 in 10.0 mi NNW 13.8 mph - N/A   Scattered Clouds
2:35 PM 69.8 °F - 53.6 °F 56% 29.96 in 10.0 mi NNW 15.0 mph 19.6 mph N/A   Mostly Cloudy
2:55 PM 64.4 °F - 51.8 °F 64% 29.97 in 10.0 mi WNW 20.7 mph 25.3 mph N/A   Scattered Clouds
3:15 PM 60.8 °F - 50.0 °F 68% 30.00 in 10.0 mi NNW 18.4 mph 28.8 mph N/A   Clear
3:35 PM 57.2 °F - 46.4 °F 67% 30.01 in 10.0 mi NNW 18.4 mph 29.9 mph N/A   Scattered Clouds
3:55 PM 55.4 °F - 42.8 °F 63% 30.03 in 10.0 mi NW 21.9 mph 27.6 mph N/A   Scattered Clouds
4:15 PM 53.6 °F - 42.8 °F 67% 30.05 in 10.0 mi NNW 24.2 mph 29.9 mph N/A   Scattered Clouds
4:35 PM 51.8 °F - 41.0 °F 67% 30.07 in 10.0 mi NNW 21.9 mph 29.9 mph N/A   Mostly Cloudy
4:55 PM 51.8 °F - 41.0 °F 67% 30.09 in 10.0 mi NNW 21.9 mph 29.9 mph N/A   Overcast
5:15 PM 50.0 °F - 41.0 °F 71% 30.10 in 10.0 mi North 27.6 mph 33.4 mph N/A   Overcast
5:35 PM 48.2 °F - 39.2 °F 71% 30.12 in 10.0 mi NNW 23.0 mph 29.9 mph N/A   Overcast
5:55 PM 48.2 °F - 37.4 °F 66% 30.14 in 10.0 mi NNW 23.0 mph 32.2 mph N/A   Overcast
6:15 PM 48.2 °F - 37.4 °F 66% 30.15 in 10.0 mi NW 16.1 mph 21.9 mph N/A   Overcast
6:35 PM 48.2 °F - 35.6 °F 62% 30.15 in 10.0 mi North 23.0 mph 32.2 mph N/A   Overcast
6:55 PM 48.2 °F - 35.6 °F 62% 30.17 in 10.0 mi North 19.6 mph 27.6 mph N/A   Overcast
7:15 PM 48.2 °F - 35.6 °F 62% 30.17 in 10.0 mi NNW 20.7 mph 27.6 mph N/A   Overcast
7:35 PM 48.2 °F - 35.6 °F 62% 30.18 in 10.0 mi NNW 23.0 mph 32.2 mph N/A   Overcast
8:15 PM 44.6 °F 36.4 °F 33.8 °F 66% 30.20 in 10.0 mi NNW 20.7 mph 31.1 mph N/A   Scattered Clouds
8:35 PM 44.6 °F 36.1 °F 33.8 °F 66% 30.20 in 10.0 mi NNW 21.9 mph 29.9 mph N/A   Clear
8:55 PM 44.6 °F 36.4 °F 33.8 °F 66% 30.21 in 10.0 mi North 20.7 mph 26.5 mph N/A   Scattered Clouds
9:35 PM 46.4 °F 39.5 °F 32.0 °F 57% 30.22 in 10.0 mi North 17.3 mph 24.2 mph N/A   Scattered Clouds
9:55 PM 46.4 °F 39.5 °F 32.0 °F 57% 30.22 in 10.0 mi North 17.3 mph 25.3 mph N/A   Scattered Clouds
10:15 PM 46.4 °F 39.2 °F 32.0 °F 57% 30.22 in 10.0 mi North 18.4 mph - N/A   Scattered Clouds
10:35 PM 46.4 °F 39.5 °F 32.0 °F 57% 30.23 in 10.0 mi North 17.3 mph 27.6 mph N/A   Clear
10:55 PM 44.6 °F 37.4 °F 32.0 °F 61% 30.25 in 10.0 mi NNW 16.1 mph 21.9 mph N/A   Clear
11:15 PM 44.6 °F 37.8 °F 30.2 °F 57% 30.25 in 10.0 mi North 15.0 mph 27.6 mph N/A   Clear
11:35 PM 44.6 °F 36.4 °F 30.2 °F 57% 30.26 in 10.0 mi North 20.7 mph - N/A   Clear
11:55 PM 44.6 °F 37.2 °F 28.4 °F 53% 30.27 in 10.0 mi North 17.3 mph 27.6 mph N/A   Clear